Tracking 19969 objects as of 12-Nov-2019
Live streaming from Space Station
objects crossing your sky now
Track the group of recently launched Starlink satellites

FLOCK 4A 13

Track FLOCK 4A 13 now!
10-day predictions
FLOCK 4A 13 is classified as:


NORAD ID: 44102
Int'l Code: 2019-018AA
Perigee: 497.6 km
Apogee: 513.2 km
Inclination: 97.4 °
Period: 94.6 minutes
Semi major axis: 6876 km
RCS: Unknown
Launch date: April 1, 2019
Source: United States (US)
Launch site: SRIHARIKOTA (SRI)
aabbcc
Your satellite tracking list
Your tracking list is empty




NASA's NSSDC Master Catalog

Two Line Element Set (TLE):
1 44102U 19018AA  19316.79348133  .00000765  00000-0  36021-4 0  9992
2 44102  97.4401  15.4239 0011347 221.7794 138.2577 15.22498639 34290
Source of the keplerian elements: AFSPC